Regional Weather Roundup
Issued by NWS

Home | Current Version | Previous Version | Text Only | Print | Product List | Glossary Off
Versions: 1 2 3 4 5 6 7 8 9 10 11 12 13 14 15 16 17 18 19 20 21 22 23 24 25 26 27 28 29 30 31 32 33 34 35 36 37 38 39 40 41 42 43 44 45 46 47 48 49 50

491
ASUS45 KBOI 170310
RWRID

IDAHO REGIONAL WEATHER ROUNDUP
NATIONAL WEATHER SERVICE BOISE ID
800 PM MST MON JAN 16 2017

NOTE: "FAIR" INDICATES FEW OR NO CLOUDS BELOW 12000 FEET
WITH NO SIGNIFICANT WEATHER AND/OR OBSTRUCTIONS TO VISIBILITY

IDZ012-014-170400-
SOUTHWEST IDAHO


CITY           SKY/WX    TMP DP  RH WIND       PRES   REMARKS
BOISE          CLEAR      4   0  83 SW5       30.42F FOG     WCI  -5
CALDWELL       CLEAR      1  -2  87 CALM      30.48F
MOUNTAIN HOME  CLEAR      5   3  93 CALM      30.42S
$$

IDZ016-017-170400-
SOUTHCENTRAL IDAHO


CITY           SKY/WX    TMP DP  RH WIND       PRES   REMARKS
BURLEY         CLEAR     11   5  77 NE5       30.32S WCI   3
JEROME         CLEAR      5   2  87 NE9       30.33F WCI  -9
TWIN FALLS     CLEAR     10   6  84 CALM      30.33S
$$

IDZ019>023-170400-
SOUTHEAST IDAHO


CITY           SKY/WX    TMP DP  RH WIND       PRES   REMARKS
IDAHO FALLS    CLOUDY    -4  -8  83 N7        30.32F WCI -18
POCATELLO      CLOUDY    -1  -4  87 W5        30.33F WCI -11
REXBURG        CLOUDY     0  -3  87 NE5       30.31S WCI -10
$$

IDZ006-010-011-018-031-032-170400-
CENTRAL IDAHO MOUNTAINS


CITY           SKY/WX    TMP DP  RH WIND       PRES   REMARKS
MCCALL         PTCLDY     5   1  83 CALM      30.20F FOG
HAILEY         CLEAR      7   1  78 NW6       30.26F WCI  -3
STANLEY          N/A     -1  -5  82 SE3       30.23F
SALMON         CLOUDY   -13 -17  84 CALM      30.45F
CHALLIS        CLEAR    -16 -19  87 CALM      30.36F
$$

IDZ002-004-006-007-026-170400-
NORTHERN IDAHO


CITY           SKY/WX    TMP DP  RH WIND       PRES   REMARKS
LEWISTON       PTCLDY    10   6  84 N3        30.28F
LOWELL           N/A     18  15  88 N5        30.35S WCI  11
COEUR D`ALENE  CLEAR     13  10  88 NE9       30.22F WCI   1
MULLAN PASS    CLEAR     23  17  78 S12       30.09S WCI  12
$$




USA.gov is the U.S. government's official web portal to all federal, state and local government web resources and services.